When you browse on this site, cookies collect data to enhance your experience and personalize the content and advertising you see.
Visit our Privacy Policy to learn more. By continuing to use the site, you agree to this use of cookies and data.
  • In Switzerland
  • List of Countries
  • For 7 days
  • Water Temperature
  • Satellite Maps
  • Weather Map
  • Weather Widgets
  • user-avatar
    Login

    Hourly Weather Algiers

    Today, 23 May, Thursday

    Time Temperature Precipitation Wind Pressure Humidity
    00:00 +19°C° 0 mm 2 mps 750 mmHg 61%
    01:00 +19°C° 0 mm 2 mps 750 mmHg 59%
    02:00 +19°C° 0 mm 2 mps 750 mmHg 57%
    03:00 +18°C° 0 mm 2 mps 750 mmHg 54%
    04:00 +19°C° 0 mm 2 mps 750 mmHg 52%
    05:00 +19°C° 0 mm 2 mps 750 mmHg 49%
    06:00 +20°C° 0 mm 2 mps 750 mmHg 46%
    07:00 +23°C° 0 mm 2 mps 750 mmHg 40%
    08:00 +25°C° 0 mm 2 mps 751 mmHg 34%
    09:00 +27°C° 0 mm 1 mps 751 mmHg 27%
    10:00 +28°C° 0 mm 2 mps 751 mmHg 26%
    11:00 +28°C° 0 mm 3 mps 750 mmHg 25%
    12:00 +29°C° 0 mm 4 mps 750 mmHg 24%
    13:00 +29°C° 0 mm 4 mps 750 mmHg 25%
    14:00 +28°C° 0 mm 4 mps 749 mmHg 26%
    15:00 +28°C° 0 mm 5 mps 749 mmHg 27%
    16:00 +27°C° 0 mm 4 mps 749 mmHg 30%
    17:00 +26°C° 0 mm 4 mps 749 mmHg 33%
    18:00 +25°C° 0 mm 4 mps 748 mmHg 36%
    19:00 +23°C° 0 mm 4 mps 748 mmHg 38%
    20:00 +22°C° 0 mm 3 mps 749 mmHg 40%
    21:00 +22°C° 0 mm 3 mps 749 mmHg 42%
    22:00 +21°C° 0 mm 3 mps 748 mmHg 41%
    23:00 +21°C° 0 mm 3 mps 748 mmHg 41%

    Tomorrow, 24 May, Friday

    Time Temperature Precipitation Wind Pressure Humidity
    00:00 +21°C° 0 mm 2 mps 747 mmHg 40%
    01:00 +21°C° 0 mm 2 mps 747 mmHg 39%
    02:00 +21°C° 0 mm 2 mps 747 mmHg 38%
    03:00 +21°C° 0 mm 2 mps 746 mmHg 38%
    04:00 +21°C° 0 mm 2 mps 746 mmHg 38%
    05:00 +21°C° 0 mm 2 mps 746 mmHg 38%
    06:00 +23°C° 0 mm 2 mps 746 mmHg 38%
    07:00 +25°C° 0 mm 2 mps 746 mmHg 36%
    08:00 +27°C° 0 mm 2 mps 746 mmHg 33%
    09:00 +28°C° 0 mm 2 mps 746 mmHg 31%
    10:00 +29°C° 0 mm 2 mps 745 mmHg 31%
    11:00 +29°C° 0 mm 3 mps 745 mmHg 32%
    12:00 +29°C° 0 mm 4 mps 745 mmHg 32%
    13:00 +28°C° 0 mm 4 mps 745 mmHg 35%
    14:00 +28°C° 0 mm 4 mps 744 mmHg 37%
    15:00 +27°C° 0 mm 3 mps 744 mmHg 40%
    16:00 +26°C° 0 mm 4 mps 744 mmHg 47%
    17:00 +23°C° 0 mm 4 mps 744 mmHg 54%
    18:00 +22°C° 0 mm 4 mps 744 mmHg 60%
    19:00 +22°C° 0 mm 5 mps 744 mmHg 65%
    20:00 +21°C° 0 mm 5 mps 744 mmHg 70%
    21:00 +20°C° 0 mm 5 mps 745 mmHg 74%
    22:00 +20°C° 0 mm 4 mps 745 mmHg 74%
    23:00 +20°C° 0 mm 4 mps 744 mmHg 74%

    Day after tomorrow, 25 May, Saturday

    Time Temperature Precipitation Wind Pressure Humidity
    00:00 +20°C° 0 mm 3 mps 744 mmHg 75%
    01:00 +19°C° 0 mm 4 mps 744 mmHg 77%
    02:00 +19°C° 0 mm 4 mps 744 mmHg 80%
    03:00 +18°C° 0 mm 4 mps 744 mmHg 83%
    04:00 +18°C° 0.1 mm 4 mps 744 mmHg 81%
    05:00 +19°C° 0.1 mm 4 mps 745 mmHg 80%
    06:00 +19°C° 0.1 mm 4 mps 745 mmHg 78%
    07:00 +19°C° 0.2 mm 3 mps 745 mmHg 75%
    08:00 +20°C° 0.2 mm 3 mps 745 mmHg 71%
    09:00 +20°C° 0.2 mm 3 mps 746 mmHg 68%
    10:00 +20°C° 0.5 mm 3 mps 746 mmHg 69%
    11:00 +20°C° 0.5 mm 3 mps 746 mmHg 69%
    12:00 +20°C° 0.5 mm 4 mps 746 mmHg 69%
    13:00 +20°C° 0.7 mm 4 mps 746 mmHg 67%
    14:00 +20°C° 0.7 mm 4 mps 746 mmHg 64%
    15:00 +21°C° 0.7 mm 4 mps 746 mmHg 62%
    16:00 +20°C° 0.1 mm 3 mps 746 mmHg 63%
    17:00 +20°C° 0.1 mm 3 mps 747 mmHg 65%
    18:00 +19°C° 0.1 mm 2 mps 747 mmHg 66%
    19:00 +19°C° 0 mm 2 mps 747 mmHg 69%
    20:00 +19°C° 0 mm 1 mps 748 mmHg 71%
    21:00 +19°C° 0 mm 1 mps 748 mmHg 73%
    22:00 +19°C° 0 mm 1 mps 748 mmHg 74%
    23:00 +18°C° 0 mm 1 mps 748 mmHg 76%

    26 May, Sunday

    Time Temperature Precipitation Wind Pressure Humidity
    00:00 +18°C° 0 mm 1 mps 748 mmHg 77%
    01:00 +18°C° 0.3 mm 1 mps 747 mmHg 78%
    02:00 +18°C° 0.3 mm 1 mps 747 mmHg 79%
    03:00 +17°C° 0.3 mm 2 mps 747 mmHg 80%
    04:00 +17°C° 0.6 mm 2 mps 747 mmHg 79%
    05:00 +17°C° 0.6 mm 2 mps 747 mmHg 79%
    06:00 +18°C° 0.6 mm 2 mps 747 mmHg 78%
    07:00 +18°C° 0.6 mm 3 mps 747 mmHg 74%
    08:00 +19°C° 0.6 mm 4 mps 748 mmHg 69%
    09:00 +20°C° 0.6 mm 4 mps 748 mmHg 65%
    10:00 +20°C° 1.2 mm 5 mps 748 mmHg 67%
    11:00 +20°C° 1.2 mm 5 mps 748 mmHg 69%
    12:00 +20°C° 1.2 mm 5 mps 748 mmHg 71%
    13:00 +20°C° 1 mm 5 mps 748 mmHg 70%
    14:00 +20°C° 1 mm 5 mps 748 mmHg 70%
    15:00 +20°C° 1 mm 5 mps 748 mmHg 69%
    16:00 +20°C° 0.7 mm 4 mps 748 mmHg 70%
    17:00 +19°C° 0.7 mm 4 mps 748 mmHg 72%
    18:00 +19°C° 0.7 mm 4 mps 748 mmHg 73%
    19:00 +19°C° 0.2 mm 3 mps 749 mmHg 74%
    20:00 +19°C° 0.2 mm 2 mps 749 mmHg 74%
    21:00 +20°C° 0.2 mm 1 mps 749 mmHg 74%
    22:00 +18°C° 0 mm 2 mps 749 mmHg 75%
    23:00 +18°C° 0 mm 2 mps 749 mmHg 76%

    27 May, Monday

    Time Temperature Precipitation Wind Pressure Humidity
    00:00 +17°C° 0 mm 2 mps 749 mmHg 77%
    01:00 +17°C° 0 mm 2 mps 748 mmHg 77%
    02:00 +17°C° 0 mm 2 mps 748 mmHg 76%
    03:00 +17°C° 0 mm 2 mps 748 mmHg 75%
    04:00 +17°C° 0 mm 2 mps 748 mmHg 73%
    05:00 +18°C° 0 mm 2 mps 748 mmHg 70%
    06:00 +18°C° 0 mm 2 mps 748 mmHg 68%
    07:00 +20°C° 0 mm 2 mps 748 mmHg 62%
    08:00 +22°C° 0 mm 1 mps 748 mmHg 56%
    09:00 +24°C° 0 mm 1 mps 748 mmHg 51%
    10:00 +25°C° 0 mm 1 mps 748 mmHg 48%
    11:00 +26°C° 0 mm 2 mps 748 mmHg 46%
    12:00 +26°C° 0 mm 3 mps 748 mmHg 43%
    13:00 +26°C° 0 mm 3 mps 748 mmHg 45%
    14:00 +26°C° 0 mm 4 mps 747 mmHg 47%
    15:00 +26°C° 0 mm 4 mps 747 mmHg 48%
    16:00 +25°C° 0 mm 4 mps 747 mmHg 51%
    17:00 +23°C° 0 mm 4 mps 747 mmHg 53%
    18:00 +23°C° 0 mm 4 mps 747 mmHg 55%
    19:00 +22°C° 0 mm 4 mps 747 mmHg 58%
    20:00 +21°C° 0 mm 3 mps 747 mmHg 60%
    21:00 +21°C° 0 mm 3 mps 747 mmHg 62%
    22:00 +21°C° 0 mm 3 mps 747 mmHg 62%
    23:00 +20°C° 0 mm 2 mps 747 mmHg 62%

    28 May, Tuesday

    Time Temperature Precipitation Wind Pressure Humidity
    00:00 +20°C° 0 mm 2 mps 747 mmHg 63%
    01:00 +20°C° 0 mm 2 mps 746 mmHg 62%
    02:00 +20°C° 0 mm 2 mps 746 mmHg 62%
    03:00 +20°C° 0 mm 2 mps 746 mmHg 62%
    04:00 +21°C° 0 mm 2 mps 746 mmHg 61%
    05:00 +21°C° 0 mm 2 mps 746 mmHg 60%
    06:00 +21°C° 0 mm 2 mps 746 mmHg 59%
    07:00 +24°C° 0 mm 2 mps 746 mmHg 54%
    08:00 +26°C° 0 mm 2 mps 746 mmHg 49%
    09:00 +27°C° 0 mm 3 mps 746 mmHg 44%
    10:00 +28°C° 0 mm 3 mps 746 mmHg 42%
    11:00 +29°C° 0 mm 4 mps 746 mmHg 40%
    12:00 +30°C° 0 mm 4 mps 746 mmHg 38%
    13:00 +29°C° 0 mm 5 mps 745 mmHg 40%
    14:00 +28°C° 0 mm 5 mps 745 mmHg 42%
    15:00 +28°C° 0 mm 5 mps 745 mmHg 44%
    16:00 +27°C° 0 mm 5 mps 745 mmHg 47%
    17:00 +26°C° 0 mm 4 mps 746 mmHg 50%
    18:00 +25°C° 0 mm 4 mps 746 mmHg 53%
    19:00 +23°C° 0 mm 4 mps 746 mmHg 58%
    20:00 +22°C° 0 mm 3 mps 747 mmHg 62%
    21:00 +21°C° 0 mm 3 mps 747 mmHg 66%
    22:00 +21°C° 0 mm 3 mps 747 mmHg 66%
    23:00 +21°C° 0 mm 2 mps 747 mmHg 67%
    Show more